COSMOS 2143 DEB, 57720

Orbit data source: Space-Track

COSMOS 2143 DEB, 57720 is space debris in LEO originally from a launch on Thu, 16 May 1991 UTC launched from the Plesetsk Missile And Space Complex (PKMTR). Debris objects in space refer to the collection of defunct objects orbiting the Earth. Examples of debris include non-operational satellites, rocket bodies, and fragments generated from explosions, collisions, or faulty payload assembly.

Loading next visibility...
Identifier
57720, 1991-033H
Orbit
LEO
Country
Flag of CISCIS
Related business
Manufacturer
NPO PM
Mission
Spacecraft
Bus & Motor
Unknown
Mass
Unknown
Launch date (UTC)
1991-05-16 (35 years ago)
Launch vehicle
Unknown
Launch site
Plesetsk Missile And Space Complex (PKMTR)
Object type
Payload
Rocket body
Debris
Shape & HBR
Unknown shape, 0.1 m
Radar Cross Section
Medium (>0.1 m² and <1 m²)

Expand to show TLE details & history
Last TLE update: 2 days ago

TLE from 2 days ago
0 COSMOS 2143 DEB
1 57720U 91033H   26171.42248958  .00001859  00000-0  12635-1 0  9997
2 57720  82.7081 343.1619 0193030 180.0323 180.0777 12.42087951129774
Epoch: 2026-06-20T10:08Z
TLE epoch observation values (Epoch: 2026-06-20T10:08:23.099Z)
Latitude
-0.00004°
Longitude
-77.57169°
Altitude
1,652.524 km
Speed
6.978 km/s
True Right ascension
22h 52m 38s
True Declination
0° 00' 00"
Sunlit
Object was in daylight at epoch
Visualization orbit readout
Latitude
Unknown
Longitude
Unknown
Altitude
Unknown
Speed
Unknown
Apparent Right ascension
Unknown
Apparent Declination
Unknown
Sunlit
N/A
Visualization observer readout
Local Sidereal Time
00:50:17
Azimuth
Unknown
Elevation
Unknown
Doppler factor
Unknown
Orbital elements
Apogee altitude
1,647.085 km
Perigee altitude
1,343.13 km
Semi-major axis
7,873.245 km
Eccentricity
0.0193
Inclination
82.7081°
RAAN
343.1619°
Arg. of periapsis
180.0323°
True anomaly
180.07477°
Mean anomaly
180.0777°
Eccentric anomaly
180.07623°
Mean motion
3.10679 °/min
Orbital period
115.88 mins
BSTAR
0.012635
Loading maneuver chart data...
Computing Atmospheric mass density...
Loading historical data...
Loading historical data...
Loading historical data...
Loading historical data...
Loading historical data...
Loading historical data...
Loading historical data...

Documentation

Showing up to 5 results
|